TimeEDT,TemperatureF,Dew PointF,Humidity,Sea Level PressureIn,VisibilityMPH,Wind Direction,Wind SpeedMPH,Gust SpeedMPH,PrecipitationIn,Events,Conditions,WindDirDegrees,DateUTC
12:14 AM,58.6,58.1,98,30.00,4.0,Calm,Calm,-,N/A,,Overcast,0,2013-09-30 04:14:00
12:35 AM,57.7,57.4,99,30.00,2.5,Calm,Calm,-,N/A,,Overcast,0,2013-09-30 04:35:00
12:54 AM,57.2,57.2,100,30.00,2.0,Calm,Calm,-,N/A,,Overcast,0,2013-09-30 04:54:00
1:14 AM,58.1,57.7,99,30.00,1.5,Calm,Calm,-,N/A,,Overcast,0,2013-09-30 05:14:00
1:35 AM,59.2,58.8,99,30.00,2.5,Calm,Calm,-,N/A,,Overcast,0,2013-09-30 05:35:00
1:54 AM,59.2,57.9,96,30.00,5.0,Calm,Calm,-,N/A,,Overcast,0,2013-09-30 05:54:00
2:14 AM,59.4,58.3,96,30.00,4.0,Calm,Calm,-,N/A,,Overcast,0,2013-09-30 06:14:00
2:35 AM,58.5,57.9,98,30.00,3.0,Calm,Calm,-,N/A,,Overcast,0,2013-09-30 06:35:00
2:54 AM,57.7,57.2,98,30.00,4.0,Calm,Calm,-,N/A,,Overcast,0,2013-09-30 06:54:00
3:14 AM,57.6,57.2,99,29.99,3.0,Calm,Calm,-,N/A,,Overcast,0,2013-09-30 07:14:00
3:35 AM,58.3,57.6,97,29.99,2.0,WNW,3.5,-,N/A,,Overcast,290,2013-09-30 07:35:00
3:54 AM,58.6,57.9,97,29.99,3.0,Calm,Calm,-,N/A,,Overcast,0,2013-09-30 07:54:00
4:14 AM,57.4,56.8,98,29.99,3.0,West,3.5,-,N/A,,Overcast,260,2013-09-30 08:14:00
4:35 AM,56.5,56.3,99,29.99,4.0,WSW,4.6,-,N/A,,Overcast,240,2013-09-30 08:35:00
4:54 AM,56.7,56.7,100,30.00,4.0,West,3.5,-,N/A,,Overcast,260,2013-09-30 08:54:00
5:14 AM,57.6,57.4,99,30.00,4.0,Calm,Calm,-,N/A,,Overcast,0,2013-09-30 09:14:00
5:35 AM,56.8,56.3,98,30.00,2.5,NNW,3.5,-,N/A,,Overcast,330,2013-09-30 09:35:00
5:54 AM,57.2,56.7,98,30.00,2.0,Calm,Calm,-,N/A,,Overcast,0,2013-09-30 09:54:00
6:14 AM,55.9,55.8,99,30.00,2.0,North,3.5,-,N/A,,Overcast,360,2013-09-30 10:14:00
6:35 AM,55.6,55.6,100,30.00,1.8,NNE,3.5,-,N/A,,Light Drizzle,20,2013-09-30 10:35:00
6:54 AM,55.6,55.6,100,30.00,2.0,Calm,Calm,-,N/A,,Overcast,0,2013-09-30 10:54:00
7:14 AM,55.8,55.8,100,30.01,2.0,Calm,Calm,-,N/A,,Overcast,0,2013-09-30 11:14:00
7:35 AM,55.8,55.8,100,30.01,2.0,Calm,Calm,-,N/A,,Overcast,0,2013-09-30 11:35:00
7:54 AM,56.3,56.3,100,30.02,2.5,Calm,Calm,-,N/A,,Overcast,0,2013-09-30 11:54:00
8:15 AM,56.8,56.8,100,30.02,1.8,Calm,Calm,-,N/A,,Overcast,0,2013-09-30 12:15:00
8:35 AM,56.3,56.3,100,30.03,1.0,Calm,Calm,-,N/A,,Overcast,0,2013-09-30 12:35:00
8:54 AM,56.5,56.5,100,30.02,0.5,Calm,Calm,-,N/A,Fog,Fog,0,2013-09-30 12:54:00
9:15 AM,56.8,56.8,100,30.02,2.0,Calm,Calm,-,N/A,,Overcast,0,2013-09-30 13:15:00
9:35 AM,57.2,57.2,100,30.03,4.0,Calm,Calm,-,N/A,,Overcast,0,2013-09-30 13:35:00
9:54 AM,57.6,57.6,100,30.03,5.0,Calm,Calm,-,N/A,,Overcast,0,2013-09-30 13:54:00
10:15 AM,58.3,57.7,98,30.03,7.0,Calm,Calm,-,N/A,,Overcast,0,2013-09-30 14:15:00
10:35 AM,58.8,57.4,95,30.02,10.0,Calm,Calm,-,N/A,,Overcast,0,2013-09-30 14:35:00
10:54 AM,59.7,56.5,89,30.02,10.0,Calm,Calm,-,N/A,,Overcast,0,2013-09-30 14:54:00
11:15 AM,61.5,57.2,86,30.01,10.0,East,4.6,-,N/A,,Overcast,90,2013-09-30 15:15:00
11:34 AM,61.7,56.7,84,30.00,10.0,SE,5.8,-,N/A,,Scattered Clouds,130,2013-09-30 15:34:00
11:54 AM,63.0,56.7,80,29.99,10.0,SSE,3.5,-,N/A,,Scattered Clouds,150,2013-09-30 15:54:00
12:15 PM,64.8,56.5,74,29.99,10.0,SW,5.8,-,N/A,,Mostly Cloudy,230,2013-09-30 16:15:00
12:34 PM,65.1,55.9,72,30.00,10.0,SSW,5.8,-,N/A,,Mostly Cloudy,200,2013-09-30 16:34:00
12:54 PM,66.4,55.9,69,30.00,10.0,South,4.6,-,N/A,,Scattered Clouds,180,2013-09-30 16:54:00
1:15 PM,66.4,54.7,66,29.99,10.0,SW,6.9,-,N/A,,Scattered Clouds,220,2013-09-30 17:15:00
1:34 PM,67.5,50.7,55,29.99,10.0,SSW,6.9,-,N/A,,Clear,210,2013-09-30 17:34:00
1:54 PM,68.2,52.9,58,29.98,10.0,SW,5.8,-,N/A,,Scattered Clouds,220,2013-09-30 17:54:00
2:15 PM,67.5,52.0,58,29.97,10.0,SSW,6.9,-,N/A,,Mostly Cloudy,200,2013-09-30 18:15:00
2:34 PM,66.7,50.9,57,29.96,10.0,SW,3.5,-,N/A,,Scattered Clouds,220,2013-09-30 18:34:00
2:54 PM,67.6,51.4,56,29.96,10.0,WSW,5.8,-,N/A,,Mostly Cloudy,240,2013-09-30 18:54:00
3:15 PM,70.0,50.0,49,29.95,10.0,SW,10.4,-,N/A,,Mostly Cloudy,220,2013-09-30 19:15:00
3:34 PM,70.0,48.2,46,29.94,10.0,SSW,10.4,-,N/A,,Scattered Clouds,200,2013-09-30 19:34:00
3:54 PM,70.5,46.8,43,29.94,10.0,South,9.2,-,N/A,,Clear,190,2013-09-30 19:54:00
4:14 PM,70.0,47.3,44,29.94,10.0,SW,8.1,-,N/A,,Clear,220,2013-09-30 20:14:00
4:34 PM,70.0,48.4,46,29.94,10.0,SSW,10.4,-,N/A,,Clear,210,2013-09-30 20:34:00
4:55 PM,70.0,49.1,47,29.94,10.0,SSW,9.2,-,N/A,,Scattered Clouds,210,2013-09-30 20:55:00
5:14 PM,70.2,48.9,47,29.94,10.0,WSW,8.1,-,N/A,,Scattered Clouds,250,2013-09-30 21:14:00
5:34 PM,70.5,48.9,46,29.94,10.0,West,6.9,-,N/A,,Clear,270,2013-09-30 21:34:00
5:55 PM,68.2,50.2,53,29.94,10.0,WSW,4.6,-,N/A,,Clear,250,2013-09-30 21:55:00
6:14 PM,69.3,49.6,50,29.94,10.0,SSW,4.6,-,N/A,,Scattered Clouds,200,2013-09-30 22:14:00
6:34 PM,68.0,50.0,52,29.93,10.0,SSW,3.5,-,N/A,,Scattered Clouds,210,2013-09-30 22:34:00
6:55 PM,66.9,50.4,55,29.94,10.0,Calm,Calm,-,N/A,,Clear,0,2013-09-30 22:55:00
7:14 PM,65.3,51.4,61,29.94,10.0,Calm,Calm,-,N/A,,Clear,0,2013-09-30 23:14:00
7:34 PM,64.9,51.8,62,29.95,10.0,Calm,Calm,-,N/A,,Clear,0,2013-09-30 23:34:00
7:55 PM,63.5,52.2,67,29.95,10.0,South,3.5,-,N/A,,Clear,170,2013-09-30 23:55:00
8:14 PM,62.4,52.3,70,29.95,10.0,Calm,Calm,-,N/A,,Clear,0,2013-10-01 00:14:00
8:34 PM,60.1,51.6,74,29.95,10.0,Calm,Calm,-,N/A,,Clear,0,2013-10-01 00:34:00
8:55 PM,58.3,53.6,84,29.95,10.0,Calm,Calm,-,N/A,,Clear,0,2013-10-01 00:55:00
9:14 PM,58.1,53.2,84,29.96,10.0,Calm,Calm,-,N/A,,Clear,0,2013-10-01 01:14:00
9:34 PM,60.3,53.8,79,29.96,10.0,Calm,Calm,-,N/A,,Clear,0,2013-10-01 01:34:00
9:55 PM,59.4,54.0,82,29.96,10.0,South,3.5,-,N/A,,Clear,190,2013-10-01 01:55:00
10:14 PM,55.9,52.0,87,29.96,10.0,Calm,Calm,-,N/A,,Clear,0,2013-10-01 02:14:00
10:34 PM,55.9,53.2,91,29.96,10.0,Calm,Calm,-,N/A,,Clear,0,2013-10-01 02:34:00
10:55 PM,54.5,52.5,93,29.96,10.0,Calm,Calm,-,N/A,,Clear,0,2013-10-01 02:55:00
11:14 PM,55.4,53.6,94,29.96,10.0,Calm,Calm,-,N/A,,Clear,0,2013-10-01 03:14:00
11:34 PM,54.0,52.7,95,29.97,10.0,Calm,Calm,-,N/A,,Clear,0,2013-10-01 03:34:00
11:55 PM,53.8,52.7,96,29.97,10.0,Calm,Calm,-,N/A,,Clear,0,2013-10-01 03:55:00